TimeEDT,TemperatureF,Dew PointF,Humidity,Sea Level PressureIn,VisibilityMPH,Wind Direction,Wind SpeedMPH,Gust SpeedMPH,PrecipitationIn,Events,Conditions,WindDirDegrees,DateUTC
12:55 AM,43.2,36.0,76,30.43,10.0,East,13.8,21.9,N/A,,Overcast,80,2013-04-23 04:55:00
1:21 AM,42.8,35.6,76,30.42,10.0,East,15.0,-,N/A,,Overcast,80,2013-04-23 05:21:00
1:26 AM,42.8,35.6,76,30.42,10.0,East,16.1,-,N/A,,Overcast,80,2013-04-23 05:26:00
1:42 AM,42.8,35.6,76,30.41,10.0,East,16.1,21.9,N/A,,Mostly Cloudy,80,2013-04-23 05:42:00
1:55 AM,42.8,35.4,75,30.41,10.0,East,15.0,-,N/A,,Mostly Cloudy,80,2013-04-23 05:55:00
2:55 AM,42.3,34.0,72,30.38,10.0,ENE,9.2,-,N/A,,Overcast,70,2013-04-23 06:55:00
3:55 AM,41.9,34.2,74,30.37,10.0,ENE,10.4,-,N/A,,Mostly Cloudy,70,2013-04-23 07:55:00
4:05 AM,42.8,33.8,70,30.36,10.0,ENE,9.2,-,N/A,,Overcast,70,2013-04-23 08:05:00
4:17 AM,42.8,33.8,70,30.36,10.0,ENE,11.5,-,N/A,,Overcast,70,2013-04-23 08:17:00
4:55 AM,42.3,34.7,75,30.35,10.0,ENE,9.2,19.6,N/A,,Overcast,60,2013-04-23 08:55:00
5:04 AM,42.8,33.8,70,30.35,10.0,ENE,9.2,-,N/A,,Overcast,60,2013-04-23 09:04:00
5:06 AM,42.8,33.8,70,30.35,10.0,ENE,11.5,-,N/A,,Overcast,60,2013-04-23 09:06:00
5:42 AM,42.8,33.8,70,30.34,10.0,NE,9.2,-,N/A,,Overcast,50,2013-04-23 09:42:00
5:55 AM,42.1,34.7,75,30.34,10.0,NE,11.5,-,N/A,,Overcast,50,2013-04-23 09:55:00
6:29 AM,42.8,33.8,70,30.34,10.0,NE,10.4,-,N/A,,Overcast,50,2013-04-23 10:29:00
6:55 AM,42.1,34.5,75,30.35,10.0,ENE,11.5,-,N/A,,Overcast,60,2013-04-23 10:55:00
7:30 AM,42.8,33.8,70,30.33,10.0,NE,13.8,-,N/A,,Overcast,50,2013-04-23 11:30:00
7:33 AM,42.8,35.6,76,30.34,10.0,NE,15.0,-,N/A,,Overcast,50,2013-04-23 11:33:00
7:55 AM,42.8,34.9,74,30.34,10.0,NE,11.5,-,N/A,,Overcast,50,2013-04-23 11:55:00
8:55 AM,44.2,35.2,71,30.32,10.0,ENE,12.7,-,N/A,,Overcast,60,2013-04-23 12:55:00
9:55 AM,45.5,36.1,70,30.32,10.0,NE,15.0,19.6,N/A,,Overcast,40,2013-04-23 13:55:00
10:55 AM,46.2,37.9,73,30.30,10.0,NNE,10.4,-,N/A,,Overcast,30,2013-04-23 14:55:00
11:25 AM,44.6,39.2,81,30.30,10.0,NNE,11.5,-,N/A,,Overcast,30,2013-04-23 15:25:00
11:50 AM,44.6,41.0,87,30.29,6.0,NE,12.7,-,N/A,Rain,Light Rain,50,2013-04-23 15:50:00
11:54 AM,44.6,41.0,87,30.29,4.0,ENE,12.7,-,N/A,Rain,Light Rain,60,2013-04-23 15:54:00
11:55 AM,44.4,41.2,88,30.29,3.0,ENE,10.4,-,0.00,Rain,Light Rain,60,2013-04-23 15:55:00
11:58 AM,44.6,41.0,87,30.29,3.0,NE,9.2,-,N/A,Rain,Light Rain,40,2013-04-23 15:58:00
12:01 PM,44.6,41.0,87,30.29,4.0,NE,10.4,-,N/A,Rain,Light Rain,40,2013-04-23 16:01:00
12:03 PM,44.6,41.0,87,30.29,5.0,NE,10.4,-,N/A,Rain,Light Rain,50,2013-04-23 16:03:00
12:04 PM,44.6,41.0,87,30.29,6.0,NE,11.5,-,N/A,Rain,Light Rain,50,2013-04-23 16:04:00
12:08 PM,44.6,41.0,87,30.28,8.0,NE,10.4,-,N/A,Rain,Light Rain,50,2013-04-23 16:08:00
12:14 PM,44.6,41.0,87,30.28,9.0,NE,10.4,-,N/A,Rain,Light Rain,40,2013-04-23 16:14:00
12:15 PM,44.6,41.0,87,30.28,9.0,NE,11.5,-,N/A,,Overcast,40,2013-04-23 16:15:00
12:16 PM,44.6,41.0,87,30.28,9.0,NE,11.5,-,N/A,,Overcast,40,2013-04-23 16:16:00
12:17 PM,44.6,41.0,87,30.28,10.0,NE,10.4,-,N/A,,Overcast,40,2013-04-23 16:17:00
12:41 PM,44.6,42.8,93,30.26,10.0,NE,10.4,-,N/A,,Overcast,50,2013-04-23 16:41:00
12:52 PM,44.6,41.0,87,30.26,10.0,NE,10.4,-,N/A,,Overcast,40,2013-04-23 16:52:00
12:55 PM,44.4,41.0,88,30.25,10.0,NNE,13.8,-,0.00,,Overcast,30,2013-04-23 16:55:00
1:55 PM,44.8,40.5,85,30.23,10.0,NNE,11.5,-,N/A,,Overcast,20,2013-04-23 17:55:00
2:55 PM,45.7,40.8,83,30.21,10.0,NE,10.4,-,N/A,,Overcast,40,2013-04-23 18:55:00
3:11 PM,46.4,41.0,81,30.21,10.0,NNE,8.1,-,N/A,,Overcast,30,2013-04-23 19:11:00
3:26 PM,46.4,41.0,81,30.22,10.0,North,10.4,-,N/A,,Overcast,10,2013-04-23 19:26:00
3:55 PM,45.7,41.7,86,30.22,10.0,North,9.2,-,N/A,,Overcast,10,2013-04-23 19:55:00
4:20 PM,46.4,41.0,81,30.22,10.0,North,10.4,-,N/A,,Overcast,360,2013-04-23 20:20:00
4:42 PM,46.4,41.0,81,30.22,10.0,NNW,10.4,-,N/A,,Overcast,340,2013-04-23 20:42:00
4:55 PM,46.0,41.5,84,30.21,10.0,North,9.2,-,N/A,,Overcast,350,2013-04-23 20:55:00
5:40 PM,46.4,41.0,81,30.18,10.0,NNW,6.9,-,N/A,,Overcast,340,2013-04-23 21:40:00
5:55 PM,47.7,41.9,80,30.19,10.0,NNW,8.1,-,N/A,,Overcast,330,2013-04-23 21:55:00
6:38 PM,48.2,41.0,76,30.16,10.0,NNE,10.4,-,N/A,,Scattered Clouds,20,2013-04-23 22:38:00
6:55 PM,47.8,41.0,77,30.15,10.0,NNE,11.5,-,N/A,,Partly Cloudy,30,2013-04-23 22:55:00
7:35 PM,46.4,41.0,81,30.14,10.0,NNE,6.9,-,N/A,,Mostly Cloudy,20,2013-04-23 23:35:00
7:55 PM,46.9,40.8,79,30.12,10.0,NNE,5.8,-,N/A,,Overcast,20,2013-04-23 23:55:00
8:55 PM,46.8,40.6,79,30.14,10.0,NW,8.1,-,N/A,,Overcast,320,2013-04-24 00:55:00
9:55 PM,47.1,40.6,78,30.14,10.0,NNW,6.9,-,N/A,,Overcast,330,2013-04-24 01:55:00
10:55 PM,46.8,41.2,81,30.13,10.0,NW,6.9,-,N/A,,Overcast,310,2013-04-24 02:55:00
11:35 PM,44.6,41.0,87,30.12,10.0,NW,5.8,-,N/A,,Scattered Clouds,320,2013-04-24 03:35:00
11:55 PM,44.6,40.5,85,30.12,10.0,WNW,6.9,-,N/A,,Scattered Clouds,300,2013-04-24 03:55:00
11:57 PM,44.6,41.0,87,30.12,10.0,WNW,6.9,-,N/A,,Mostly Cloudy,300,2013-04-24 03:57:00